Галаасия

Узбекистан     39°51′29″N   64°26′50″E
темп.,
°C
ветер,
м/с
пор.,
м/с
влажн.,
%
обл.,
%
осадки,
мм/ч
давл.,
гПа
погр.,
м
25 января, пн
пн2523:00+2ссв4661100 0.0 1030116
02:00+1ссв4657100 0.0 1029108
05:00+1ссв465893 0.0 1028107
08:000ссв69580 0.0 1029185
11:00+4св58497 0.0 1029442
14:00+7всв453884 0.0 1028646
17:00+7с454592 0.0 1028446
20:00+3ссв696262 0.0 1029220
26 января, вт
вт2623:00+2ссв566531 0.0 1029126
02:00+1ссв33650 0.0 102855
05:00+1всв23700 0.0 102833
08:00+1в23700 0.0 102937
11:00+5юв34530 0.0 1028309
14:00+7ююв23420 0.0 1026617
17:00+8вюв22390 0.0 1026523
20:00+5в11510 0.0 102722
27 января, ср
ср2723:00+4с11550 0.0 102622
02:00+4ссв34560 0.0 102731
05:00+3с34580 0.0 102644
08:00+2с45600 0.0 102764
11:00+6ссв34450 0.0 1027185
14:00+10с22320 0.0 1026485
17:00+11с34300 0.0 1025642
20:00+7с45420 0.0 1026114
28 января, чт
чт2823:00+5с34510 0.0 102672
02:00+4с33530 0.0 102640
05:00+3св12500 0.0 102522
08:00+2юв33560 0.0 102628
11:00+7в34410 0.0 1026264
14:00+10вюв23320 0.0 1024515
17:00+11вюв22290 0.0 1023555
20:00+8в22380 0.0 102422
29 января, пт
пт2923:00+6в23400 0.0 102522
02:00+6в34420 0.0 102425
05:00+5вюв34440 0.0 102430
08:00+4вюв45430 0.0 102371
11:00+9вюв57260 0.0 1023273
14:00+14вюв68160 0.0 1020553
17:00+15вюв610160 0.0 1018445
20:00+11вюв592537 0.0 1018139